KA8OAD-1 Weather Reports


Display with metric or nautical units.
time (UTC)temp
F
wind
direction
speed
MPH
gust
MPH
rain 1hr
in
rain 24hr
in
rain mn
in
humidity
%
barometer
mb
20260510201004 63 284 3.0 10.0 0.00 0.51 0.01 33 1016.7
20260510200504 63 308 4.0 12.0 0.00 0.51 0.01 36 1016.7
20260510200004 63 316 4.0 12.0 0.00 0.51 0.01 33 1016.7
20260510195504 63 302 3.0 8.0 0.00 0.51 0.01 34 1016.6
20260510195004 64 303 4.0 8.0 0.00 0.51 0.01 33 1016.5
20260510194504 64 318 4.0 9.0 0.00 0.51 0.01 34 1016.5
20260510193504 65 329 4.0 10.0 0.00 0.51 0.01 30 1016.5
20260510193005 65 309 4.0 11.0 0.00 0.51 0.01 36 1016.6
20260510192504 66 315 4.0 11.0 0.00 0.51 0.01 35 1016.5
20260510192004 66 324 3.0 11.0 0.00 0.51 0.01 32 1016.6
20260510191505 67 326 4.0 11.0 0.00 0.51 0.01 36 1016.7
20260510191004 67 335 4.0 11.0 0.00 0.51 0.01 31 1016.6
20260510190004 67 304 3.0 8.0 0.00 0.51 0.01 32 1016.4
20260510185504 67 315 3.0 9.0 0.00 0.51 0.01 34 1016.3
20260510184504 67 309 3.0 15.0 0.00 0.51 0.01 34 1016.3
20260510183504 67 311 3.0 9.0 0.00 0.51 0.01 30 1016.1
20260510182504 68 302 3.0 10.0 0.00 0.51 0.01 37 1016.0
20260510182005 68 301 2.0 8.0 0.00 0.51 0.01 34 1016.0
20260510181504 68 307 2.0 8.0 0.00 0.51 0.01 33 1016.0
20260510181005 68 327 3.0 8.0 0.01 0.51 0.01 39 1016.0
20260510180504 68 345 3.0 8.0 0.01 0.51 0.01 38 1016.0
20260510180005 68 314 3.0 8.0 0.01 0.51 0.01 34 1016.1
20260510175503 68 297 3.0 11.0 0.01 0.51 0.01 35 1016.1
20260510174503 68 318 3.0 9.0 0.01 0.51 0.01 34 1016.1
20260510174004 68 316 4.0 11.0 0.01 0.51 0.01 34 1016.2
20260510173005 68 317 3.0 11.0 0.01 0.51 0.01 36 1016.1
20260510172504 68 293 3.0 11.0 0.01 0.51 0.01 38 1016.1
20260510172004 68 310 2.0 5.0 0.01 0.51 0.01 35 1016.2
20260510171504 68 339 3.0 9.0 0.01 0.51 0.01 36 1016.2
20260510171005 67 312 4.0 12.0 0.00 0.50 0.00 39 1016.3
20260510170004 67 332 3.0 11.0 0.00 0.50 0.00 34 1016.3
20260510165004 66 311 3.0 10.0 0.00 0.50 0.00 37 1016.1
20260510164503 66 303 3.0 10.0 0.00 0.50 0.00 38 1016.1
20260510164004 66 332 2.0 6.0 0.00 0.50 0.00 37 1016.1
20260510163503 66 329 3.0 13.0 0.00 0.50 0.00 37 1016.0
20260510163004 66 326 3.0 13.0 0.00 0.50 0.00 37 1016.0
20260510162503 65 327 3.0 10.0 0.00 0.50 0.00 36 1015.9
20260510162005 65 324 3.0 10.0 0.00 0.50 0.00 38 1015.8
20260510161504 65 1 2.0 6.0 0.00 0.50 0.00 36 1015.8
20260510160504 64 353 3.0 12.0 0.00 0.50 0.00 42 1015.9
20260510160004 64 350 4.0 12.0 0.00 0.50 0.00 41 1015.9
20260510155505 63 333 4.0 12.0 0.00 0.50 0.00 42 1015.8
20260510155004 63 311 3.0 12.0 0.00 0.50 0.00 47 1015.7
20260510154504 62 310 3.0 8.0 0.00 0.50 0.00 41 1015.7
20260510154004 61 324 3.0 8.0 0.00 0.50 0.00 48 1015.8
20260510153504 61 10 2.0 8.0 0.00 0.50 0.00 47 1015.7
20260510153005 60 60 2.0 5.0 0.00 0.50 0.00 48 1015.7
20260510152503 59 16 2.0 7.0 0.00 0.50 0.00 47 1015.5
20260510152005 59 2 2.0 7.0 0.00 0.50 0.00 47 1015.5
20260510151503 59 336 3.0 8.0 0.00 0.50 0.00 51 1015.5
20260510151004 58 329 3.0 8.0 0.00 0.50 0.00 53 1015.5
20260510150004 56 333 2.0 6.0 0.00 0.50 0.00 57 1015.3
20260510145503 55 355 3.0 13.0 0.00 0.50 0.00 59 1015.3
20260510145005 54 60 3.0 13.0 0.00 0.50 0.00 58 1015.3
20260510143504 52 18 3.0 7.0 0.00 0.50 0.00 64 1015.2
20260510143005 52 337 2.0 7.0 0.00 0.50 0.00 66 1015.2
20260510142504 51 341 3.0 8.0 0.00 0.50 0.00 67 1015.2
20260510142005 51 337 3.0 8.0 0.00 0.50 0.00 67 1015.3
20260510141503 51 3 3.0 6.0 0.00 0.50 0.00 69 1015.3
20260510141005 50 11 2.0 6.0 0.00 0.50 0.00 70 1015.1
20260510140503 50 7 2.0 4.0 0.00 0.50 0.00 73 1015.2
20260510140005 50 76 2.0 8.0 0.00 0.50 0.00 72 1015.0
20260510135503 49 78 3.0 8.0 0.00 0.50 0.00 71 1015.1
20260510135005 49 42 3.0 8.0 0.00 0.50 0.00 75 1015.0
20260510134505 48 53 2.0 6.0 0.00 0.50 0.00 79 1014.8
20260510134004 48 52 2.0 7.0 0.00 0.50 0.00 80 1014.8
20260510133504 48 2 2.0 8.0 0.00 0.50 0.00 84 1014.8
20260510133005 48 356 3.0 9.0 0.00 0.50 0.00 84 1014.7
20260510132504 48 359 2.0 9.0 0.00 0.50 0.00 87 1014.7
20260510132004 48 328 2.0 5.0 0.00 0.50 0.00 88 1014.7
20260510131504 48 322 2.0 5.0 0.00 0.50 0.00 90 1014.7
20260510131006 47 348 2.0 6.0 0.00 0.50 0.00 90 1014.3
20260510130503 47 338 2.0 6.0 0.00 0.50 0.00 91 1014.3
20260510130005 47 336 2.0 5.0 0.00 0.50 0.00 91 1014.1
20260510125504 47 352 1.0 5.0 0.00 0.50 0.00 91 1014.0
20260510125005 47 338 1.0 6.0 0.00 0.50 0.00 92 1014.1
20260510124503 47 354 1.0 6.0 0.00 0.50 0.00 92 1013.9
20260510124005 47 338 1.0 4.0 0.00 0.50 0.00 92 1013.8
20260510123503 47 335 2.0 4.0 0.00 0.50 0.00 92 1013.7
20260510123005 47 334 2.0 5.0 0.00 0.50 0.00 92 1013.8
20260510122503 47 323 1.0 5.0 0.00 0.50 0.00 92 1013.6
20260510122005 47 322 1.0 5.0 0.00 0.50 0.00 92 1013.4
20260510121503 47 326 1.0 5.0 0.00 0.50 0.00 92 1013.3
20260510121004 47 330 2.0 8.0 0.00 0.50 0.00 92 1013.4
20260510120504 47 329 1.0 8.0 0.00 0.50 0.00 92 1013.4
20260510120004 47 324 1.0 4.0 0.00 0.50 0.00 92 1013.2
20260510115504 46 329 2.0 6.0 0.00 0.50 0.00 92 1013.0
20260510115004 46 324 2.0 6.0 0.00 0.50 0.00 92 1013.1
20260510114504 46 321 1.0 5.0 0.00 0.50 0.00 92 1012.8
20260510114004 46 345 1.0 5.0 0.00 0.50 0.00 92 1012.7
20260510113503 46 354 1.0 5.0 0.00 0.50 0.00 92 1012.5
20260510113005 46 327 1.0 4.0 0.00 0.50 0.00 92 1012.3
20260510112504 46 324 2.0 5.0 0.00 0.50 0.00 92 1012.2
20260510112004 46 345 1.0 5.0 0.00 0.50 0.00 92 1012.2
20260510111504 46 345 1.0 4.0 0.00 0.50 0.00 92 1012.1
20260510111004 46 329 1.0 4.0 0.00 0.50 0.00 92 1011.9
20260510110504 46 333 0.0 2.0 0.00 0.50 0.00 92 1011.8
20260510110005 46 335 1.0 2.0 0.00 0.50 0.00 92 1011.7
20260510105504 46 336 1.0 4.0 0.00 0.50 0.00 92 1011.7
20260510105004 46 337 1.0 4.0 0.00 0.50 0.00 92 1011.5
20260510104504 46 340 0.0 3.0 0.00 0.50 0.00 92 1011.2
20260510103004 47 347 1.0 6.0 0.00 0.50 0.00 92 1010.9
20260510102504 47 354 1.0 6.0 0.00 0.50 0.00 92 1011.0
20260510102004 47 4 0.0 4.0 0.00 0.50 0.00 92 1010.9
20260510101504 47 330 0.0 3.0 0.00 0.50 0.00 92 1010.9
20260510101004 47 330 0.0 3.0 0.00 0.50 0.00 92 1010.9
20260510100503 47 0 0.0 0.0 0.00 0.50 0.00 92 1010.7
20260510095503 47 0 0.0 0.0 0.00 0.50 0.00 92 1010.8
20260510094503 48 11 0.0 3.0 0.00 0.50 0.00 92 1010.7
20260510094005 48 10 0.0 3.0 0.00 0.50 0.00 92 1010.6
20260510093504 48 0 0.0 0.0 0.00 0.50 0.00 92 1010.5
20260510093004 48 0 0.0 0.0 0.00 0.50 0.00 92 1010.3
20260510092504 48 0 0.0 0.0 0.00 0.50 0.00 91 1010.3
20260510092004 48 0 0.0 0.0 0.00 0.50 0.00 92 1010.1
20260510091504 48 0 0.0 0.0 0.00 0.50 0.00 92 1010.1
20260510091005 48 0 0.0 0.0 0.00 0.50 0.00 91 1009.9
20260510090504 49 0 0.0 0.0 0.00 0.50 0.00 91 1009.8
20260510090004 49 0 0.0 0.0 0.00 0.50 0.00 92 1009.6
20260510085504 49 0 0.0 0.0 0.00 0.50 0.00 92 1009.4
20260510085004 49 0 0.0 0.0 0.00 0.50 0.00 91 1009.4
20260510084005 50 0 0.0 0.0 0.00 0.51 0.00 92 1009.4
20260510083503 50 0 0.0 0.0 0.00 0.51 0.00 92 1009.5
20260510083005 50 0 0.0 0.0 0.00 0.51 0.00 92 1009.4
20260510082004 50 0 0.0 0.0 0.00 0.51 0.00 92 1009.5
20260510081504 51 0 0.0 0.0 0.00 0.51 0.00 92 1009.5
20260510081005 51 0 0.0 0.0 0.00 0.51 0.00 92 1009.5
20260510080503 51 9 0.0 2.0 0.00 0.52 0.00 92 1009.4
20260510080005 51 10 0.0 2.0 0.00 0.52 0.00 92 1009.2
20260510075503 52 9 0.0 2.0 0.00 0.53 0.00 92 1009.1
20260510075005 52 9 0.0 2.0 0.00 0.54 0.00 92 1009.0
20260510074503 52 7 0.0 2.0 0.00 0.54 0.00 92 1008.9
20260510074004 52 6 0.0 2.0 0.00 0.55 0.00 92 1008.8
20260510073504 52 6 0.0 1.0 0.00 0.55 0.00 92 1008.7
20260510072504 52 6 1.0 3.0 0.00 0.56 0.00 92 1008.5
20260510072004 52 6 1.0 3.0 0.00 0.56 0.00 92 1008.4
20260510071004 53 1 1.0 5.0 0.00 0.57 0.00 92 1008.3
20260510070504 53 3 1.0 3.0 0.00 0.57 0.00 92 1008.2
20260510070004 53 344 1.0 4.0 0.00 0.57 0.00 92 1008.2
20260510065504 53 326 1.0 4.0 0.00 0.57 0.00 93 1008.1
20260510065005 53 316 1.0 4.0 0.00 0.58 0.00 93 1007.9
20260510064504 53 318 2.0 4.0 0.00 0.58 0.00 93 1007.9
20260510064004 53 320 1.0 4.0 0.00 0.59 0.00 92 1007.8
20260510063504 53 319 0.0 3.0 0.00 0.60 0.00 92 1007.8
20260510063004 53 0 0.0 0.0 0.00 0.60 0.00 92 1007.8
20260510062504 53 0 0.0 0.0 0.00 0.61 0.00 92 1007.7
20260510061504 53 0 0.0 0.0 0.00 0.61 0.00 92 1007.5
20260510061004 54 0 0.0 0.0 0.00 0.61 0.00 92 1007.6
20260510060005 54 0 0.0 0.0 0.00 0.61 0.00 92 1007.5
20260510055503 54 0 0.0 0.0 0.00 0.62 0.00 92 1007.6
20260510055005 54 301 1.0 3.0 0.00 0.63 0.00 92 1007.6
20260510054004 54 0 0.0 0.0 0.00 0.65 0.00 92 1007.4
20260510053503 54 0 0.0 0.0 0.00 0.66 0.00 92 1007.3
20260510053004 54 0 0.0 0.0 0.00 0.67 0.00 92 1007.2
20260510052504 54 0 0.0 0.0 0.00 0.68 0.00 92 1007.1
20260510052004 54 0 0.0 0.0 0.00 0.69 0.00 92 1007.0
20260510051504 54 0 0.0 0.0 0.00 0.69 0.00 92 1006.9
20260510050503 54 0 0.0 0.0 0.00 0.70 0.00 92 1006.6
20260510050005 54 0 0.0 0.0 0.00 0.71 0.00 92 1006.5
20260510045504 54 0 0.0 0.0 0.00 0.72 0.00 92 1006.5
20260510045005 54 0 0.0 0.0 0.00 0.72 0.00 92 1006.5
20260510044504 54 0 0.0 0.0 0.00 0.73 0.00 92 1006.5
20260510044004 54 0 0.0 0.0 0.00 0.73 0.00 92 1006.4
20260510043503 55 0 0.0 0.0 0.01 0.73 0.00 92 1006.6
20260510043005 55 0 0.0 0.0 0.01 0.73 0.00 92 1006.7
20260510042506 55 0 0.0 0.0 0.02 0.73 0.00 92 1006.6
20260510042005 55 0 0.0 0.0 0.03 0.73 0.00 92 1006.6
20260510041504 55 0 0.0 0.0 0.05 0.73 0.00 92 1006.6
20260510041004 55 0 0.0 0.0 0.05 0.73 0.00 92 1006.6
20260510040008 55 0 0.0 0.0 0.05 0.73 0.00 92 1006.6
20260510035503 55 0 0.0 0.0 0.05 0.73 0.73 92 1006.6
20260510034005 55 247 1.0 3.0 0.05 0.73 0.73 92 1006.7
20260510033004 55 293 3.0 11.0 0.04 0.73 0.72 92 1006.8
20260510032504 55 282 2.0 9.0 0.05 0.72 0.71 92 1007.1
20260510032005 55 223 0.0 1.0 0.05 0.72 0.70 91 1006.7
20260510031503 55 0 0.0 0.0 0.03 0.70 0.68 91 1006.2
20260510031005 55 0 0.0 0.0 0.03 0.70 0.68 91 1006.6
20260510030005 55 0 0.0 0.0 0.03 0.70 0.68 91 1006.7
20260510025503 55 0 0.0 0.0 0.03 0.70 0.68 91 1006.8
20260510025005 55 0 0.0 0.0 0.03 0.71 0.68 91 1006.6
20260510024504 55 292 0.0 1.0 0.03 0.71 0.68 91 1006.5
20260510024004 55 302 1.0 5.0 0.03 0.71 0.68 91 1006.6
20260510023504 55 300 2.0 6.0 0.03 0.72 0.68 91 1006.8
20260510023004 55 303 2.0 6.0 0.03 0.72 0.68 91 1007.0
20260510022504 55 332 0.0 6.0 0.00 0.69 0.65 90 1006.7
20260510021504 55 0 0.0 0.0 0.00 0.70 0.65 90 1005.7
20260510021004 55 0 0.0 0.0 0.00 0.70 0.65 90 1005.7
20260510020503 55 0 0.0 0.0 0.00 0.70 0.65 89 1005.7
20260510020005 55 0 0.0 0.0 0.00 0.71 0.65 89 1005.9
20260510015503 55 0 0.0 0.0 0.00 0.71 0.65 89 1005.9
20260510015005 55 0 0.0 0.0 0.00 0.71 0.65 89 1005.8
20260510014503 55 0 0.0 0.0 0.00 0.71 0.65 89 1005.6
20260510014004 55 0 0.0 0.0 0.00 0.71 0.65 89 1005.7
20260510013504 56 0 0.0 0.0 0.00 0.72 0.65 89 1005.7
20260510013004 56 0 0.0 0.0 0.00 0.72 0.65 88 1005.7
20260510012504 56 0 0.0 0.0 0.00 0.72 0.65 88 1005.6
20260510012005 56 0 0.0 0.0 0.00 0.73 0.65 88 1005.4
20260510011503 56 0 0.0 0.0 0.01 0.73 0.65 88 1005.4
20260510011005 56 0 0.0 0.0 0.01 0.74 0.65 88 1005.4
20260510010005 56 0 0.0 0.0 0.02 0.74 0.65 87 1005.4
20260510005503 56 0 0.0 0.0 0.04 0.75 0.65 87 1005.4
20260510005005 56 0 0.0 0.0 0.13 0.75 0.65 87 1005.4
20260510004503 56 0 0.0 0.0 0.17 0.75 0.65 86 1005.2
20260510004004 57 239 0.0 3.0 0.20 0.76 0.65 86 1005.3
20260510003504 57 239 1.0 3.0 0.23 0.76 0.65 86 1005.3
20260510003004 57 239 1.0 3.0 0.29 0.77 0.65 86 1005.3
20260510002504 57 239 1.0 3.0 0.34 0.77 0.65 85 1005.3
20260510002004 57 270 1.0 7.0 0.39 0.77 0.65 85 1005.3
20260510001503 57 261 2.0 7.0 0.41 0.77 0.64 85 1005.3
20260510001005 58 226 2.0 7.0 0.41 0.77 0.64 84 1005.4
20260510000503 58 240 2.0 7.0 0.41 0.78 0.64 83 1005.5
20260510000004 59 284 2.0 10.0 0.40 0.77 0.63 82 1005.6
20260509235504 59 303 4.0 14.0 0.38 0.75 0.61 81 1005.6
20260509234504 61 306 5.0 16.0 0.25 0.64 0.48 78 1005.4
20260509233503 64 310 5.0 14.0 0.18 0.57 0.41 73 1005.5
20260509233005 65 311 6.0 16.0 0.13 0.52 0.36 72 1004.9
20260509232504 66 310 7.0 17.0 0.08 0.47 0.31 69 1005.1
20260509232004 67 289 5.0 17.0 0.03 0.42 0.26 67 1004.7
20260509231503 67 230 4.0 10.0 0.00 0.40 0.23 61 1004.2
20260509231005 67 221 4.0 10.0 0.00 0.40 0.23 58 1003.3
20260509230503 68 225 4.0 11.0 0.00 0.40 0.23 56 1003.0
20260509230005 68 222 4.0 11.0 0.00 0.40 0.23 56 1003.0
20260509225004 68 235 5.0 13.0 0.00 0.40 0.23 56 1003.1
20260509224504 68 226 6.0 16.0 0.00 0.41 0.23 56 1002.8
20260509223005 68 217 5.0 13.0 0.00 0.42 0.23 57 1002.7
20260509222504 68 218 5.0 13.0 0.00 0.42 0.23 55 1002.9
20260509222004 68 225 5.0 12.0 0.00 0.42 0.23 55 1002.8
20260509221504 68 215 5.0 12.0 0.00 0.42 0.23 55 1002.8
20260509221004 68 215 4.0 15.0 0.00 0.42 0.23 54 1002.7
20260509220504 68 222 3.0 15.0 0.00 0.42 0.23 56 1002.7
20260509215504 68 218 6.0 11.0 0.00 0.42 0.23 54 1002.8
20260509215005 68 218 6.0 15.0 0.00 0.43 0.23 53 1002.7
20260509214503 68 220 6.0 15.0 0.00 0.43 0.23 54 1002.8
20260509214007 68 217 5.0 14.0 0.00 0.43 0.23 54 1002.7
20260509213503 68 212 5.0 13.0 0.00 0.43 0.23 54 1002.9
20260509213005 68 206 5.0 16.0 0.00 0.43 0.23 55 1002.7
20260509212504 68 210 5.0 16.0 0.00 0.43 0.23 55 1002.8
20260509212004 69 212 5.0 13.0 0.00 0.43 0.23 56 1002.9
20260509211504 68 215 5.0 13.0 0.00 0.43 0.23 55 1002.9
20260509211004 69 218 5.0 12.0 0.00 0.43 0.23 56 1003.0
20260509210504 69 224 6.0 15.0 0.00 0.43 0.23 57 1003.1
20260509210004 69 228 5.0 15.0 0.00 0.43 0.23 56 1003.2
20260509205504 68 217 4.0 16.0 0.00 0.43 0.23 57 1003.2
20260509205004 68 209 5.0 16.0 0.00 0.43 0.23 56 1003.3
20260509204504 68 217 5.0 13.0 0.00 0.43 0.23 57 1003.4
20260509204004 68 211 5.0 15.0 0.00 0.44 0.23 57 1003.5
20260509203504 69 211 4.0 15.0 0.00 0.45 0.23 57 1003.5
20260509202504 69 205 5.0 13.0 0.00 0.45 0.23 58 1003.7
20260509202004 70 222 5.0 11.0 0.00 0.46 0.23 56 1003.8
20260509201504 70 239 4.0 10.0 0.00 0.46 0.23 59 1003.7